| Temperature (°F) | Max | Average | Min |
|---|---|---|---|
| Max Temperature | 89 | 80.88 | 66 |
| Avg Temperature | 78.46 | 68.49 | 53.56 |
| Min Temperature | 71 | 61.09 | 41 |
| Precipitation (in) | Max | Average | Min | Sum |
|---|---|---|---|---|
| Precipitation | 2.82 | 0.1 | 0 | 3.14 |
| Dew Point (°F) | Max | Average | Min |
|---|---|---|---|
| Dew Point | 67.89 | 59.13 | 31.63 |
| Wind (mph) | Max | Average | Min |
|---|---|---|---|
| Wind | 28 | 14.47 | 7 |
| Gust Wind | 48 | 24.49 | 16 |
| Sea Level Pressure (in) | Max | Average | Min |
|---|---|---|---|
| Sea Level Pressure | 30.22 | 30.06 | 29.8 |
| Date | Temp High/Low | Dew Pt High/Low | Humidity | Wind | Max Wind | Wind Gust | Pressure | Precip. | Condition |
|---|---|---|---|---|---|---|---|---|---|
| 3/1/2026 | 78 °F / 55 °F | 61 °F / 54 °F | 84 % | 15 mph | - | 30.04 in | 0 in | ||
| 3/2/2026 | 81 °F / 56 °F | 61 °F / 49 °F | 80 % | 12 mph | - | 30.11 in | 0 in | ||
| 3/3/2026 | 80 °F / 60 °F | 64 °F / 59 °F | 83 % | 15 mph | - | 30.15 in | 0 in | ||
| 3/4/2026 | 84 °F / 61 °F | 66 °F / 60 °F | 86 % | 15 mph | - | 30.15 in | 0 in | ||
| 3/5/2026 | 87 °F / 65 °F | 67 °F / 62 °F | 75 % | 14 mph | - | 30.1 in | 0 in | ||
| 3/6/2026 | 86 °F / 69 °F | 69 °F / 60 °F | 79 % | 14 mph | - | 30.12 in | 0 in | ||
| 3/7/2026 | 85 °F / 68 °F | 69 °F / 63 °F | 76 % | 13 mph | - | 30.09 in | 0.04 in | ||
| 3/8/2026 | 71 °F / 71 °F | 69 °F / 68 °F | 92 % | 5 mph | - | 30.05 in | 0 in | ||
| 3/9/2026 | 86 °F / 69 °F | 69 °F / 61 °F | 79 % | 8 mph | - | 30.06 in | 0 in | ||
| 3/10/2026 | 88 °F / 64 °F | 68 °F / 61 °F | 68 % | 9 mph | - | 30.08 in | 0 in | ||
| 3/11/2026 | 89 °F / 70 °F | 68 °F / 61 °F | 69 % | 9 mph | - | 30.03 in | 0 in | ||
| 3/12/2026 | 82 °F / 63 °F | 69 °F / 61 °F | 87 % | 16 mph | - | 29.92 in | 0.24 in | ||
| 3/13/2026 | 79 °F / 57 °F | 62 °F / 55 °F | 77 % | 20 mph | - | 29.99 in | 0 in | ||
| 3/14/2026 | 83 °F / 67 °F | 65 °F / 58 °F | 72 % | 15 mph | - | 29.98 in | 0 in | ||
| 3/15/2026 | 85 °F / 68 °F | 69 °F / 64 °F | 86 % | 20 mph | - | 29.91 in | 1.85 in | ||
| 3/16/2026 | 85 °F / 58 °F | 70 °F / 49 °F | 81 % | 24 mph | - | 29.77 in | 1 in | ||
| 3/17/2026 | 60 °F / 41 °F | 48 °F / 21 °F | 45 % | 16 mph | - | 30.05 in | 0 in | ||
| 3/18/2026 | 68 °F / 43 °F | 39 °F / 27 °F | 46 % | 16 mph | - | 30.12 in | 0 in | ||
| 3/19/2026 | 71 °F / 48 °F | 46 °F / 39 °F | 61 % | 17 mph | - | 30.09 in | 0 in | ||
| 3/20/2026 | 76 °F / 51 °F | 54 °F / 46 °F | 63 % | 13 mph | - | 30.06 in | 0 in | ||
| 3/21/2026 | 80 °F / 50 °F | 55 °F / 42 °F | 77 % | 10 mph | - | 30 in | 0 in | ||
| 3/22/2026 | 82 °F / 57 °F | 60 °F / 48 °F | 67 % | 8 mph | - | 30 in | 0 in | ||
| 3/23/2026 | 81 °F / 59 °F | 62 °F / 53 °F | 81 % | 10 mph | - | 29.99 in | 0 in | ||
| 3/24/2026 | 76 °F / 63 °F | 65 °F / 60 °F | 87 % | 17 mph | - | 30.01 in | 0 in | ||
| 3/25/2026 | 83 °F / 63 °F | 65 °F / 61 °F | 78 % | 15 mph | - | 30.06 in | 0 in | ||
| 3/26/2026 | 82 °F / 64 °F | 67 °F / 60 °F | 86 % | 13 mph | - | 30.06 in | 0 in | ||
| 3/27/2026 | 86 °F / 65 °F | 65 °F / 57 °F | 70 % | 12 mph | - | 30.02 in | 0 in | ||
| 3/28/2026 | 85 °F / 64 °F | 64 °F / 58 °F | 81 % | 28 mph | - | 30.11 in | 0 in | ||
| 3/29/2026 | 77 °F / 64 °F | 63 °F / 60 °F | 79 % | 18 mph | - | 30.23 in | 0.01 in | ||
| 3/30/2026 | 83 °F / 62 °F | 64 °F / 60 °F | 74 % | 13 mph | - | 30.2 in | 0 in | ||
| 3/31/2026 | 84 °F / 62 °F | 65 °F / 56 °F | 70 % | 15 mph | - | 30.16 in | 0 in |